www.pogodaiklimat.ru

Погода и климат >> Архив погоды >> Россия >> Иркутская область >> Червянка


ПОГОДА в Червянке

  • Прогноз погоды в Червянке
  • Монитор погоды в Червянке

АРХИВ ПОГОДЫ в Червянке

Время (UTC), дата Ветер
(напр.,м/с)
 
Видим.   Явления Облачность Т
(С)
Тd
(С)
f
(%)
Тe
(С)
Тes
(С)
Комфортность P
(гПа)
Po
(гПа)
Тmin
(С)
Tmax
(С)
R
(мм)
R24
(мм)
S
(см)
18 16.09 Ю 2 н/о 10/0
[Ac As Cs]
+5.2 +0.6 72 +3 +3 1022.3 995.3
21 16.09 В 1 н/о 9/0
[Ac As]
+5.0 +2.0 81 +4 +4 1022.2 995.2
00 17.09 ЮВ 1 20 км 10/5 600 м
[Cb cap Ac As]
+5.8 +2.4 79 +5 +5 1021.5 994.6 +4.5
03 17.09 ЮЗ 3 50 км 3/1 600 м
[Cu hum Ci sp]
+10.5 +6.0 74 +9 +12 1020.7 994.3
06 17.09 ЮЗ 4 50 км 1/1 600 м
[Cu hum]
+15.1 +8.8 66 +14 +18 1019.5 993.4
09 17.09 Ю 3 50 км ясно +18.4 +7.6 49 +19 +21 1017.6 992.0
12 17.09 Ю 1 50 км 3/0
[Cs]
+15.4 +7.1 58 +16 +16 1017.1 991.3 +18.4
15 17.09 штиль 0 н/о местами туман поземный 3/0
[Ci]
+5.5 +4.8 95 +4 +4 1017.8 990.9
18 17.09 штиль 0 н/о местами туман поземный 3/0
[Cs]
+2.0 +2.0 100 +1 +1 1017.2 990.0
21 17.09 штиль 0 н/о местами туман поземный 4/0
[Cs]
-0.1 -0.1 100 -2 -2 1016.4 989.0
00 18.09 штиль 0 10 км ясно -0.8 -1.1 98 -2 -2 1016.1 988.6 -1.5
03 18.09 Ю 2 20 км 8/0
[Ci fib]
+14.1 +8.1 67 +14 +17 1013.3 987.4
06 18.09 ЮЗ 5
{11}
50 км 10/8 600 м
[Sc Cs]
+17.3 +8.3 55 +17 +17 1012.0 986.5
09 18.09 З 4
{12}
50 км в посл. час ливневой дождь 10/9 600 м
[Cb cap As trans]
+13.7 +10.2 79 +12 +12 1012.7 986.8
12 18.09 З 4
{10}
50 км {ливн. осадки} 3/3 600 м
[Sc Cs]
+12.6 +8.2 75 +11 +11 1004.4 988.3 +19.9 0.4
15 18.09 ЮЗ 3 н/о 3/1 600 м
[Sc Ci fib]
+10.6 +7.5 81 +9 +9 1016.4 990.1
18 18.09 ЮЗ 2 н/о 3/0
[Cs]
+8.7 +7.9 95 +7 +7 1017.0 990.5
21 18.09 Ю 1 н/о 10/0
[Cs]
+8.5 +7.9 96 +8 +8 1017.3 990.8
00 19.09 ЮЗ 1 10 км 9/9 300 м
[St]
+6.0 +6.0 100 +5 +5 1018.7 991.9 +5.5
03 19.09 ЮЗ 3 10 км 10/10 600 м
[Sc]
+11.3 +9.1 86 +9 +9 1018.7 992.5
06 19.09 Ю 2 20 км 3/3 600 м
[Cu hum]
+16.1 +8.7 61 +16 +20 1017.6 991.8
09 19.09 ЮЗ 3 20 км 6/3 600 м
[Sc diur, vesp Ac trans Ci fib]
+18.0 +9.0 56 +18 +19 1017.2 991.5
12 19.09 ЮВ 2 20 км 8/0
[Ac trans Cs]
+12.3 +9.8 85 +11 +11 1016.9 990.8 +18.3
15 19.09 Ю 3 н/о 10/8 600 м
[Cb cap Cs]
+12.7 +9.4 80 +11 +11 1016.3 990.2
18 19.09 Ю 2 н/о 10/4 600 м
[Cb cap Ac As]
+13.0 +7.7 70 +12 +12 1014.3 988.2
21 19.09 ЮВ 2 н/о 8/0
[Ac cast]
+12.2 +7.9 75 +11 +11 1013.7 987.5
00 20.09 ЮВ 2 50 км 4/0
[Cs]
+9.0 +7.5 90 +7 +7 1014.9 988.4 +8.8
03 20.09 Ю 3 50 км 10/0
[Cs]
+17.7 +9.8 60 +18 +20 1014.0 988.3
06 20.09 ЮЗ 4 50 км 9/0
[Cs]
+21.4 +10.4 49 +23 +26 комфорт 1012.3 987.1
09 20.09 ЮЗ 5 50 км 9/0
[Ci]
+23.2 +8.6 39 +24 +25 комфорт 1010.2 985.1
12 20.09 Ю 3 н/о 10/0
[Cs]
+19.4 +9.2 52 +21 +21 комфорт 1009.4 984.1 +23.7
15 20.09 ЮВ 3 н/о 10/0
[Cs]
+15.9 +9.6 66 +15 +15 1008.3 982.6
18 20.09 Ю 2 н/о 10/0
[Cs]
+13.9 +8.5 70 +13 +13 1006.8 981.1
21 20.09 ЮЗ 4 н/о 10/0
[Ac trans Cs]
+17.4 +7.8 53 +17 +17 1006.8 981.4
00 21.09 ЮЗ 4 20 км 10/0
[Ac As Cs]
+16.7 +8.5 58 +16 +16 1009.2 983.6 +13.5
03 21.09 З 8-11
{12}
50 км 1/0
[Ci fib]
+17.9 -1.1 28 +17 +18 1011.2 985.7
06 21.09 З 7-11
{12}
50 км 9/0
[Cc]
+19.0 -0.5 27 +18 +20 1011.7 986.3
09 21.09 З 7-11
{14}
50 км 9/3 600 м
[Cu hum Cc]
+18.1 -1.9 26 +17 +18 1012.9 987.4
12 21.09 З 3
{13}
н/о 9/1 600 м
[Cu hum Cs]
+13.5 -0.5 38 +13 +13 1016.6 990.5 +19.1
15 21.09 Ю 2 н/о 6/0
[Cs]
+7.6 +1.7 66 +6 +6 1019.0 992.3
18 21.09 Ю 2 н/о 3/0
[Ci fib]
+1.5 +0.1 90 -2 -2 1021.5 994.1
21 21.09 штиль 0 н/о 6/0
[Ac trans]
+2.7 +1.4 91 +2 +2 1023.0 995.7
00 22.09 штиль 0 50 км 5/0
[Ac trans Cc]
+0.8 -0.3 92 -0 -0 1025.1 997.5 +0.1
03 22.09 СЗ 1 50 км 10/3 600 м
[Sc Ac trans Cc]
+11.6 +3.5 58 +12 +13 1024.7 998.2
06 22.09 З 5
{10}
50 км 9/6 600 м
[Sc diur, vesp Ac lent Cs]
+14.1 +2.0 44 +13 +13 1024.2 997.9
09 22.09 З 5
{10}
50 км 9/3 600 м
[Sc diur, vesp Cs]
+14.9 -1.0 34 +14 +14 1023.4 997.3
12 22.09 ЮЗ 2 н/о 1/0
[Ci fib]
+10.6 0.0 48 +10 +10 1023.6 997.1 +16.3
15 22.09 штиль 0 н/о 3/0
[Cs]
+2.5 +0.9 89 +1 +1 1024.5 997.2
18 22.09 штиль 0 н/о ясно -0.8 -1.7 94 -2 -2 1024.3 996.7
21 22.09 штиль 0 н/о ясно -2.6 -2.6 100 -4 -4 1023.5 995.7
00 23.09 С 1 20 км 3/0
[Ci fib]
-2.8 -3.5 95 -5 -5 1022.2 994.4 -3.4
03 23.09 ЮВ 1 20 км 1/0
[Ci fib]
+11.6 +3.8 59 +12 +16 1017.8 991.6
06 23.09 ЮВ 7-11
{11}
20 км 3/0
[Ci fib]
+20.6 +3.7 33 +21 +22 комфорт 1012.6 987.3
09 23.09 ЮВ 6-10
{13}
50 км 8/0
[Ci]
+22.7 +4.5 31 +23 +23 комфорт 1009.4 984.3
12 23.09 ЮВ 4
{10}
н/о 4/0
[Ci]
+18.6 +3.5 37 +19 +19 1008.3 982.9 +22.8
15 23.09 ЮВ 4 н/о ясно +15.2 +4.2 48 +14 +14 1007.7 982.0

 

Местоположение метеостанции Червянка (Иркутская область, Россия): широта 57.65 долгота 99.53 высота над уровнем моря 220 м.

В архиве по умолчанию представлена погода в Червянке за последнюю неделю. Архивные данные за месяц целиком и за предыдущие месяцы, начиная с января 2011 года, Вы можете получить, выбрав интересующий диапазон дат из раскрывающегося списка и нажав кнопку "Ввод!".


*Определитесь, кто Вы:
робот инопланетянин человек

Внимание! Время в таблицах - всемирное. Для получения местного времени необходимо прибавить поправку, которая равна 8 ч.

Смотрите также архив погоды в соседних городах и на ближайших метеорологических станциях:

Погода в Кодинске (Красноярский край, Россия) (109 км)
Погода в Богучанах (Красноярский край, Россия) (147 км)
Погода в Ершово (Иркутская область, Россия) (176 км)
Погода в Усть-Илимске (Иркутская область, Россия) (186 км)
Погода в Братске (Иркутская область, Россия) (201 км)
Погода в Тайшете (Иркутская область, Россия) (211 км)
Погода в Абане (Красноярский край, Россия) (236 км)
Погода в Заярске (Иркутская область, Россия) (256 км)
Погода в Калтуке (Иркутская область, Россия) (256 км)
Погода в Тангуе (Иркутская область, Россия) (268 км)

Пояснения к столбцам:

Ветер - указаны скорость ветра в м/с - средняя за 10 мин, порывы в срок и между сроками (в фигурных скобках) и направление, откуда дует ветер: С - северный, СВ - северо-восточный, В - восточный, ЮВ - юго-восточный, Ю - южный, ЮЗ - юго-западный, З - западный, СЗ - северо-западный.
Видимость - горизонтальная дальность видимости в метрах или километрах. При видимости от 1 до 10 км при отсутствии осадков обычно наблюдается дымка, при ухудшении видимости до 1 км и менее - туман. В сухую погоду видимость может ухудшаться дымом, пылью или мглою.
Явления - указаны атмосферные явления, наблюдавшиеся в срок или в последний час перед сроком; фигурными скобками обозначены явления, наблюдавшиеся между сроками (за 1-3 часа до срока); квадратными скобками обозначены град или гололедные отложения с указанием их диаметра в мм.
Облачность - указаны через наклонную черту общая и нижняя облачность в баллах и высота нижней границы облаков в метрах; квадратными скобками обозначены формы облаков: Ci - перистые, Cs - перисто-слоистые, Cc - перисто-кучевые, Ac - высококучевые, As - высокослоистые, Sc - слоисто-кучевые, Ns - слоисто-дождевые, Cu - кучевые, Cb - кучево-дождевые. Подробнее классификацию облаков см. в Атласе облаков (PDF).
T - Температура воздуха - температура, измеренная на высоте 2 м над землей.
Td - Температура точки росы - температура, при понижении до которой содержащийся в воздухе водяной пар достигнет насыщения.
f - Относительная влажность воздуха - влажноcть воздуха, измеренная на высоте 2 м над землей.
Te - Эффективная температура - температура, которую ощущает одетый по сезону человек в тени. Характеристика душности погоды. При расчете учитывается влияние влажности воздуха и скорости ветра на теплоощущения человека.
Tes - Эффективная температура на солнце - температура, которую ощущает человек, с поправкой на солнечный нагрев. Характеристика знойности погоды. Зависит от высоты солнца над горизонтом, облачности и скорости ветра. Ночью, в пасмурную погоду, а также при ветре 12 м/с и более поправка равна нулю.
P - Атмосферное давление - приведенное к уровню моря атмосферное давление.
Po - Атмосферное давление - измеренное на уровне метеостанции атмосферное давление.
Tmin - Минимальная температура - минимум температуры воздуха на высоте 2 м над землей.
Tmax - Максимальная температура - максимум температуры воздуха на высоте 2 м над землей.
R - Количество осадков - Количество выпавших осадков за период времени, мм. При наведении курсора мыши на число - период времени, за который выпало указанное количество осадков.
R24 - Количество осадков - Количество выпавших осадков за 24 часа, мм.
S - Снежный покров - Высота снежного покрова, см. При наведении курсора мыши на число - состояние снежного покрова и степень покрытия местности в баллах.